Time,TemperatureF,DewpointF,PressureIn,WindDirection,WindDirectionDegrees,WindSpeedMPH,WindSpeedGustMPH,Humidity,HourlyPrecipIn,Conditions,Clouds,dailyrainin,SoftwareType,DateUTC
2013-05-10 00:02:00,59.6,57.6,29.37,SW,223,0.0,0.0,93,0.00,,,0.00,Wunderground v.1.15,2013-05-10 05:02:00,
2013-05-10 00:07:00,59.6,57.6,29.37,SW,223,0.0,0.0,93,0.00,,,0.00,Wunderground v.1.15,2013-05-10 05:07:00,
2013-05-10 00:12:00,59.6,57.6,29.37,SW,223,0.0,0.0,93,0.00,,,0.00,Wunderground v.1.15,2013-05-10 05:12:00,
2013-05-10 00:17:00,59.8,57.8,29.38,SW,223,0.0,0.0,93,0.00,,,0.00,Wunderground v.1.15,2013-05-10 05:17:00,
2013-05-10 00:23:00,59.9,57.9,29.38,SW,223,0.0,0.0,93,0.00,,,0.00,Wunderground v.1.15,2013-05-10 05:23:00,
2013-05-10 00:28:00,59.8,57.8,29.38,SW,223,0.0,4.0,93,0.00,,,0.00,Wunderground v.1.15,2013-05-10 05:28:00,
2013-05-10 00:34:00,59.8,57.5,29.38,SW,223,3.0,3.0,92,0.00,,,0.00,Wunderground v.1.15,2013-05-10 05:34:00,
2013-05-10 00:40:00,59.6,57.3,29.39,SW,219,4.0,4.0,92,0.00,,,0.00,Wunderground v.1.15,2013-05-10 05:40:00,
2013-05-10 00:46:00,59.3,57.0,29.39,SW,219,0.0,4.0,92,0.00,,,0.00,Wunderground v.1.15,2013-05-10 05:46:00,
2013-05-10 00:52:00,59.3,57.0,29.38,SSW,213,4.0,4.0,92,0.00,,,0.00,Wunderground v.1.15,2013-05-10 05:52:00,
2013-05-10 00:57:00,59.1,56.8,29.38,SW,217,0.0,4.0,92,0.00,,,0.00,Wunderground v.1.15,2013-05-10 05:57:00,
2013-05-10 01:03:00,59.0,57.0,29.38,SW,217,0.0,1.0,93,0.00,,,0.00,Wunderground v.1.15,2013-05-10 06:03:00,
2013-05-10 01:08:00,58.9,56.6,29.38,SW,217,0.0,3.0,92,0.00,,,0.00,Wunderground v.1.15,2013-05-10 06:08:00,
2013-05-10 01:14:00,58.8,56.8,29.38,SW,216,0.0,1.0,93,0.00,,,0.00,Wunderground v.1.15,2013-05-10 06:14:00,
2013-05-10 01:19:00,58.7,56.7,29.37,SW,216,0.0,1.0,93,0.00,,,0.00,Wunderground v.1.15,2013-05-10 06:19:00,
2013-05-10 01:24:00,58.7,56.7,29.38,SW,216,0.0,4.0,93,0.00,,,0.00,Wunderground v.1.15,2013-05-10 06:24:00,
2013-05-10 01:30:00,58.7,56.7,29.37,SW,217,0.0,0.0,93,0.00,,,0.00,Wunderground v.1.15,2013-05-10 06:30:00,
2013-05-10 01:35:00,58.7,56.7,29.36,SW,217,0.0,5.0,93,0.00,,,0.00,Wunderground v.1.15,2013-05-10 06:35:00,
2013-05-10 01:40:00,58.8,56.8,29.36,SW,217,0.0,1.0,93,0.00,,,0.00,Wunderground v.1.15,2013-05-10 06:40:00,
2013-05-10 01:45:00,58.8,56.8,29.36,SW,217,0.0,3.0,93,0.00,,,0.00,Wunderground v.1.15,2013-05-10 06:45:00,
2013-05-10 01:51:00,58.8,56.8,29.36,SW,217,0.0,0.0,93,0.00,,,0.00,Wunderground v.1.15,2013-05-10 06:51:00,
2013-05-10 01:56:00,58.8,56.8,29.35,SW,220,0.0,1.0,93,0.00,,,0.00,Wunderground v.1.15,2013-05-10 06:56:00,
2013-05-10 02:01:00,58.8,56.8,29.35,SW,220,0.0,0.0,93,0.00,,,0.00,Wunderground v.1.15,2013-05-10 07:01:00,
2013-05-10 02:06:00,58.8,56.8,29.35,SW,220,0.0,3.0,93,0.00,,,0.00,Wunderground v.1.15,2013-05-10 07:06:00,
2013-05-10 02:11:00,58.7,56.7,29.35,SSW,210,2.0,2.0,93,0.00,,,0.00,Wunderground v.1.15,2013-05-10 07:11:00,
2013-05-10 02:16:00,58.8,56.8,29.35,SW,220,0.0,4.0,93,0.00,,,0.00,Wunderground v.1.15,2013-05-10 07:16:00,
2013-05-10 02:21:00,58.6,56.6,29.35,SW,220,0.0,0.0,93,0.00,,,0.00,Wunderground v.1.15,2013-05-10 07:21:00,
2013-05-10 02:26:00,58.6,56.6,29.35,SSW,211,0.0,5.0,93,0.00,,,0.00,Wunderground v.1.15,2013-05-10 07:26:00,
2013-05-10 02:31:00,58.6,56.6,29.35,SW,220,0.0,0.0,93,0.00,,,0.00,Wunderground v.1.15,2013-05-10 07:31:00,
2013-05-10 02:36:00,58.6,56.6,29.35,SW,220,2.0,4.0,93,0.00,,,0.00,Wunderground v.1.15,2013-05-10 07:36:00,
2013-05-10 02:41:00,58.6,56.6,29.35,SW,220,0.0,3.0,93,0.00,,,0.00,Wunderground v.1.15,2013-05-10 07:41:00,
2013-05-10 02:46:00,58.7,56.7,29.35,SW,220,0.0,3.0,93,0.00,,,0.00,Wunderground v.1.15,2013-05-10 07:46:00,
2013-05-10 02:51:00,58.5,56.5,29.35,SW,220,0.0,0.0,93,0.00,,,0.00,Wunderground v.1.15,2013-05-10 07:51:00,
2013-05-10 02:56:00,58.3,56.3,29.35,SW,220,0.0,3.0,93,0.00,,,0.00,Wunderground v.1.15,2013-05-10 07:56:00,
2013-05-10 03:01:00,58.2,56.2,29.35,SW,220,0.0,2.0,93,0.00,,,0.00,Wunderground v.1.15,2013-05-10 08:01:00,
2013-05-10 03:06:00,58.2,56.2,29.35,SW,220,0.0,5.0,93,0.00,,,0.00,Wunderground v.1.15,2013-05-10 08:06:00,
2013-05-10 03:11:00,58.1,56.1,29.36,SW,220,3.0,3.0,93,0.00,,,0.00,Wunderground v.1.15,2013-05-10 08:11:00,
2013-05-10 03:16:00,58.1,56.4,29.36,SW,220,3.0,4.0,94,0.00,,,0.00,Wunderground v.1.15,2013-05-10 08:16:00,
2013-05-10 03:21:00,58.1,56.1,29.36,SW,220,0.0,1.0,93,0.00,,,0.00,Wunderground v.1.15,2013-05-10 08:21:00,
2013-05-10 03:26:00,58.1,56.4,29.36,SW,225,0.0,6.0,94,0.00,,,0.00,Wunderground v.1.15,2013-05-10 08:26:00,
2013-05-10 03:31:00,58.2,56.5,29.36,SW,229,0.0,1.0,94,0.00,,,0.00,Wunderground v.1.15,2013-05-10 08:31:00,
2013-05-10 03:36:00,58.2,56.2,29.36,SW,229,0.0,6.0,93,0.00,,,0.00,Wunderground v.1.15,2013-05-10 08:36:00,
2013-05-10 03:41:00,58.2,56.5,29.36,SW,232,6.0,6.0,94,0.00,,,0.00,Wunderground v.1.15,2013-05-10 08:41:00,
2013-05-10 03:46:00,58.1,56.4,29.35,SW,232,4.0,6.0,94,0.00,,,0.00,Wunderground v.1.15,2013-05-10 08:46:00,
2013-05-10 03:51:00,58.0,56.3,29.36,WSW,238,3.0,7.0,94,0.00,,,0.00,Wunderground v.1.15,2013-05-10 08:51:00,
2013-05-10 03:56:00,58.1,56.1,29.36,WSW,240,0.0,7.0,93,0.00,,,0.00,Wunderground v.1.15,2013-05-10 08:56:00,
2013-05-10 04:01:00,58.2,56.5,29.36,WSW,240,2.0,3.0,94,0.00,,,0.00,Wunderground v.1.15,2013-05-10 09:01:00,
2013-05-10 04:07:00,-30.1,-99.9,29.36,WSW,240,0.0,6.0,255,0.00,,,0.00,Wunderground v.1.15,2013-05-10 09:07:00,
2013-05-10 04:12:00,58.2,56.5,29.36,WSW,240,0.0,3.0,94,0.00,,,0.00,Wunderground v.1.15,2013-05-10 09:12:00,
2013-05-10 04:17:00,58.2,56.5,29.36,WSW,240,0.0,5.0,94,0.00,,,0.00,Wunderground v.1.15,2013-05-10 09:17:00,
2013-05-10 04:22:00,58.2,56.2,29.36,WSW,240,0.0,1.0,93,0.00,,,0.00,Wunderground v.1.15,2013-05-10 09:22:00,
2013-05-10 04:27:00,58.1,56.4,29.36,WSW,240,0.0,3.0,94,0.00,,,0.00,Wunderground v.1.15,2013-05-10 09:27:00,
2013-05-10 04:32:00,58.0,56.3,29.36,WSW,240,0.0,4.0,94,0.00,,,0.00,Wunderground v.1.15,2013-05-10 09:32:00,
2013-05-10 04:37:00,58.0,56.3,29.37,WSW,240,0.0,4.0,94,0.00,,,0.00,Wunderground v.1.15,2013-05-10 09:37:00,
2013-05-10 04:42:00,58.0,56.3,29.36,WSW,240,0.0,3.0,94,0.00,,,0.00,Wunderground v.1.15,2013-05-10 09:42:00,
2013-05-10 04:47:00,57.9,55.9,29.37,WSW,240,4.0,4.0,93,0.00,,,0.00,Wunderground v.1.15,2013-05-10 09:47:00,
2013-05-10 04:52:00,57.7,55.7,29.37,WSW,240,0.0,3.0,93,0.00,,,0.00,Wunderground v.1.15,2013-05-10 09:52:00,
2013-05-10 04:57:00,57.6,55.6,29.37,WSW,240,2.0,6.0,93,0.00,,,0.00,Wunderground v.1.15,2013-05-10 09:57:00,
2013-05-10 05:02:00,57.5,55.5,29.37,WSW,240,0.0,1.0,93,0.00,,,0.00,Wunderground v.1.15,2013-05-10 10:02:00,
2013-05-10 05:07:00,57.3,55.3,29.37,WSW,241,2.0,6.0,93,0.00,,,0.00,Wunderground v.1.15,2013-05-10 10:07:00,
2013-05-10 05:12:00,57.2,55.5,29.37,WSW,241,0.0,1.0,94,0.00,,,0.00,Wunderground v.1.15,2013-05-10 10:12:00,
2013-05-10 05:17:00,57.1,55.4,29.37,WSW,241,0.0,5.0,94,0.00,,,0.00,Wunderground v.1.15,2013-05-10 10:17:00,
2013-05-10 05:22:00,57.1,55.4,29.37,WSW,241,0.0,3.0,94,0.00,,,0.00,Wunderground v.1.15,2013-05-10 10:22:00,
2013-05-10 05:27:00,57.1,55.4,29.37,WSW,241,2.0,6.0,94,0.00,,,0.00,Wunderground v.1.15,2013-05-10 10:27:00,
2013-05-10 05:32:00,57.1,55.4,29.37,WSW,241,0.0,5.0,94,0.00,,,0.00,Wunderground v.1.15,2013-05-10 10:32:00,
2013-05-10 05:37:00,57.1,55.4,29.37,WSW,241,0.0,5.0,94,0.00,,,0.00,Wunderground v.1.15,2013-05-10 10:37:00,
2013-05-10 05:42:00,57.2,55.5,29.37,WSW,245,0.0,10.0,94,0.00,,,0.00,Wunderground v.1.15,2013-05-10 10:42:00,
2013-05-10 05:47:00,57.1,55.4,29.37,WSW,245,0.0,10.0,94,0.00,,,0.00,Wunderground v.1.15,2013-05-10 10:47:00,
2013-05-10 05:52:00,57.1,55.4,29.37,WSW,245,0.0,5.0,94,0.00,,,0.00,Wunderground v.1.15,2013-05-10 10:52:00,
2013-05-10 05:57:00,57.1,55.4,29.37,WSW,246,0.0,8.0,94,0.00,,,0.00,Wunderground v.1.15,2013-05-10 10:57:00,
2013-05-10 06:02:00,57.0,55.3,29.37,WSW,249,0.0,7.0,94,0.00,,,0.00,Wunderground v.1.15,2013-05-10 11:02:00,
2013-05-10 06:07:00,57.0,55.0,29.38,West,268,5.0,11.0,93,0.00,,,0.00,Wunderground v.1.15,2013-05-10 11:07:00,
2013-05-10 06:12:00,57.1,55.1,29.38,West,268,0.0,6.0,93,0.00,,,0.00,Wunderground v.1.15,2013-05-10 11:12:00,
2013-05-10 06:17:00,57.2,55.2,29.38,West,268,0.0,6.0,93,0.00,,,0.00,Wunderground v.1.15,2013-05-10 11:17:00,
2013-05-10 06:22:00,57.2,55.2,29.38,West,268,6.0,6.0,93,0.00,,,0.00,Wunderground v.1.15,2013-05-10 11:22:00,
2013-05-10 06:27:00,57.3,55.3,29.39,West,269,0.0,7.0,93,0.00,,,0.00,Wunderground v.1.15,2013-05-10 11:27:00,
2013-05-10 06:32:00,57.3,55.0,29.39,West,273,6.0,6.0,92,0.00,,,0.00,Wunderground v.1.15,2013-05-10 11:32:00,
2013-05-10 06:37:00,57.3,55.0,29.39,West,273,1.0,7.0,92,0.00,,,0.00,Wunderground v.1.15,2013-05-10 11:37:00,
2013-05-10 06:42:00,57.4,55.1,29.39,West,273,0.0,6.0,92,0.00,,,0.00,Wunderground v.1.15,2013-05-10 11:42:00,
2013-05-10 06:47:00,57.4,55.1,29.39,West,277,0.0,8.0,92,0.00,,,0.00,Wunderground v.1.15,2013-05-10 11:47:00,
2013-05-10 06:52:00,57.5,55.2,29.39,West,277,1.0,6.0,92,0.00,,,0.00,Wunderground v.1.15,2013-05-10 11:52:00,
2013-05-10 06:57:00,57.5,54.9,29.39,West,277,2.0,8.0,91,0.00,,,0.00,Wunderground v.1.15,2013-05-10 11:57:00,
2013-05-10 07:02:00,57.5,54.9,29.39,West,279,1.0,6.0,91,0.00,,,0.00,Wunderground v.1.15,2013-05-10 12:02:00,
2013-05-10 07:07:00,57.5,54.9,29.40,West,279,7.0,8.0,91,0.00,,,0.00,Wunderground v.1.15,2013-05-10 12:07:00,
2013-05-10 07:12:00,57.6,55.0,29.39,West,279,0.0,4.0,91,0.00,,,0.00,Wunderground v.1.15,2013-05-10 12:12:00,
2013-05-10 07:17:00,57.7,55.1,29.39,West,279,5.0,8.0,91,0.00,,,0.00,Wunderground v.1.15,2013-05-10 12:17:00,
2013-05-10 07:22:00,58.2,55.3,29.39,West,280,1.0,13.0,90,0.00,,,0.00,Wunderground v.1.15,2013-05-10 12:22:00,
2013-05-10 07:27:00,57.9,55.0,29.40,West,280,5.0,13.0,90,0.00,,,0.00,Wunderground v.1.15,2013-05-10 12:27:00,
2013-05-10 07:32:00,58.0,55.1,29.39,West,280,5.0,9.0,90,0.00,,,0.00,Wunderground v.1.15,2013-05-10 12:32:00,
2013-05-10 07:37:00,58.1,55.2,29.39,West,280,0.0,9.0,90,0.00,,,0.00,Wunderground v.1.15,2013-05-10 12:37:00,
2013-05-10 07:42:00,58.1,55.2,29.39,WNW,284,8.0,13.0,90,0.00,,,0.00,Wunderground v.1.15,2013-05-10 12:42:00,
2013-05-10 07:47:00,58.1,55.2,29.39,WNW,285,5.0,13.0,90,0.00,,,0.00,Wunderground v.1.15,2013-05-10 12:47:00,
2013-05-10 07:52:00,58.4,55.2,29.39,WNW,286,0.0,3.0,89,0.00,,,0.00,Wunderground v.1.15,2013-05-10 12:52:00,
2013-05-10 07:57:00,58.0,54.8,29.40,WNW,285,1.0,14.0,89,0.00,,,0.00,Wunderground v.1.15,2013-05-10 12:57:00,
2013-05-10 08:02:00,57.8,54.9,29.40,WNW,285,2.0,7.0,90,0.00,,,0.00,Wunderground v.1.15,2013-05-10 13:02:00,
2013-05-10 08:07:00,57.7,54.8,29.40,WNW,286,0.0,9.0,90,0.00,,,0.00,Wunderground v.1.15,2013-05-10 13:07:00,
2013-05-10 08:12:00,57.7,54.8,29.41,WNW,286,5.0,5.0,90,0.00,,,0.00,Wunderground v.1.15,2013-05-10 13:12:00,
2013-05-10 08:17:00,57.6,54.7,29.41,WNW,286,0.0,8.0,90,0.00,,,0.00,Wunderground v.1.15,2013-05-10 13:17:00,
2013-05-10 08:22:00,57.5,54.6,29.40,WNW,290,0.0,7.0,90,0.00,,,0.00,Wunderground v.1.15,2013-05-10 13:22:00,
2013-05-10 08:27:00,57.5,54.6,29.40,WNW,292,0.0,11.0,90,0.00,,,0.00,Wunderground v.1.15,2013-05-10 13:27:00,
2013-05-10 08:33:00,57.5,54.9,29.41,WNW,292,0.0,11.0,91,0.00,,,0.00,Wunderground v.1.15,2013-05-10 13:33:00,
2013-05-10 08:38:00,57.4,54.8,29.41,WNW,292,0.0,11.0,91,0.00,,,0.00,Wunderground v.1.15,2013-05-10 13:38:00,
2013-05-10 08:43:00,57.3,54.7,29.41,WNW,292,8.0,8.0,91,0.00,,,0.00,Wunderground v.1.15,2013-05-10 13:43:00,
2013-05-10 08:48:00,57.3,54.7,29.41,WNW,292,6.0,9.0,91,0.00,,,0.00,Wunderground v.1.15,2013-05-10 13:48:00,
2013-05-10 08:53:00,57.2,54.6,29.42,WNW,292,0.0,4.0,91,0.00,,,0.00,Wunderground v.1.15,2013-05-10 13:53:00,
2013-05-10 08:58:00,57.2,54.6,29.42,WNW,292,5.0,9.0,91,0.00,,,0.00,Wunderground v.1.15,2013-05-10 13:58:00,
2013-05-10 09:03:00,57.1,54.5,29.41,WNW,294,8.0,9.0,91,0.00,,,0.00,Wunderground v.1.15,2013-05-10 14:03:00,
2013-05-10 09:08:00,57.0,54.4,29.41,NW,306,0.0,14.0,91,0.00,,,0.00,Wunderground v.1.15,2013-05-10 14:08:00,
2013-05-10 09:13:00,57.0,54.4,29.41,NW,306,5.0,13.0,91,0.00,,,0.00,Wunderground v.1.15,2013-05-10 14:13:00,
2013-05-10 09:18:00,57.1,54.5,29.42,NW,306,1.0,13.0,91,0.00,,,0.00,Wunderground v.1.15,2013-05-10 14:18:00,
2013-05-10 09:23:00,57.2,54.6,29.42,WNW,300,6.0,11.0,91,0.00,,,0.00,Wunderground v.1.15,2013-05-10 14:23:00,
2013-05-10 09:28:00,57.2,54.6,29.42,WNW,301,5.0,12.0,91,0.00,,,0.00,Wunderground v.1.15,2013-05-10 14:28:00,
2013-05-10 09:33:00,57.0,54.4,29.43,WNW,302,7.0,11.0,91,0.00,,,0.00,Wunderground v.1.15,2013-05-10 14:33:00,
2013-05-10 09:38:00,56.8,54.2,29.43,WNW,302,7.0,13.0,91,0.00,,,0.00,Wunderground v.1.15,2013-05-10 14:38:00,
2013-05-10 09:43:00,56.4,53.8,29.43,NW,309,0.0,9.0,91,0.00,,,0.00,Wunderground v.1.15,2013-05-10 14:43:00,
2013-05-10 09:48:00,56.3,53.7,29.43,NW,310,9.0,9.0,91,0.00,,,0.00,Wunderground v.1.15,2013-05-10 14:48:00,
2013-05-10 09:53:00,56.2,53.6,29.43,NW,311,0.0,11.0,91,0.00,,,0.00,Wunderground v.1.15,2013-05-10 14:53:00,
2013-05-10 09:58:00,56.2,53.6,29.43,NW,311,5.0,11.0,91,0.00,,,0.01,Wunderground v.1.15,2013-05-10 14:58:00,
2013-05-10 10:03:00,56.2,53.6,29.44,NW,311,7.0,7.0,91,0.00,,,0.01,Wunderground v.1.15,2013-05-10 15:03:00,
2013-05-10 10:08:00,56.2,53.6,29.44,NW,319,7.0,14.0,91,0.00,,,0.01,Wunderground v.1.15,2013-05-10 15:08:00,
2013-05-10 10:13:00,56.1,53.2,29.44,NW,319,5.0,8.0,90,0.00,,,0.01,Wunderground v.1.15,2013-05-10 15:13:00,
2013-05-10 10:18:00,56.1,53.2,29.44,NW,320,0.0,11.0,90,0.00,,,0.01,Wunderground v.1.15,2013-05-10 15:18:00,
2013-05-10 10:23:00,56.1,53.2,29.44,NW,323,8.0,12.0,90,0.00,,,0.01,Wunderground v.1.15,2013-05-10 15:23:00,
2013-05-10 10:28:00,56.2,53.0,29.44,NW,323,4.0,12.0,89,0.00,,,0.01,Wunderground v.1.15,2013-05-10 15:28:00,
2013-05-10 10:33:00,56.3,53.1,29.45,NW,323,0.0,5.0,89,0.00,,,0.01,Wunderground v.1.15,2013-05-10 15:33:00,
2013-05-10 10:38:00,56.4,-99.9,29.45,NW,324,4.0,12.0,255,0.00,,,0.01,Wunderground v.1.15,2013-05-10 15:38:00,
2013-05-10 10:43:00,-999.9,-99.9,29.44,NW,324,0.0,8.0,89,0.00,,,0.01,Wunderground v.1.15,2013-05-10 15:43:00,
2013-05-10 10:48:00,57.0,-99.9,29.44,NW,323,0.0,8.0,255,0.00,,,0.01,Wunderground v.1.15,2013-05-10 15:48:00,
2013-05-10 10:53:00,57.1,53.3,29.44,NW,323,4.0,9.0,87,0.00,,,0.01,Wunderground v.1.15,2013-05-10 15:53:00,
2013-05-10 10:58:00,57.3,53.5,29.45,NNW,327,0.0,12.0,87,0.00,,,0.01,Wunderground v.1.15,2013-05-10 15:58:00,
2013-05-10 11:03:00,57.2,53.0,29.45,NNW,327,0.0,9.0,86,0.00,,,0.01,Wunderground v.1.15,2013-05-10 16:03:00,
2013-05-10 11:08:00,57.0,53.2,29.45,NNW,327,0.0,9.0,87,0.00,,,0.01,Wunderground v.1.15,2013-05-10 16:08:00,
2013-05-10 11:13:00,57.1,53.3,29.45,NW,326,5.0,8.0,87,0.00,,,0.01,Wunderground v.1.15,2013-05-10 16:13:00,
2013-05-10 11:18:00,57.4,53.6,29.45,NNW,327,0.0,9.0,87,0.00,,,0.01,Wunderground v.1.15,2013-05-10 16:18:00,
2013-05-10 11:23:00,57.5,53.3,29.45,NNW,327,0.0,9.0,86,0.00,,,0.01,Wunderground v.1.15,2013-05-10 16:23:00,
2013-05-10 11:28:00,57.4,53.2,29.46,NNW,327,2.0,12.0,86,0.00,,,0.01,Wunderground v.1.15,2013-05-10 16:28:00,
2013-05-10 11:33:00,57.3,52.8,29.46,NNW,327,8.0,11.0,85,0.00,,,0.01,Wunderground v.1.15,2013-05-10 16:33:00,
2013-05-10 11:38:00,57.6,52.8,29.46,NNW,328,4.0,12.0,84,0.00,,,0.01,Wunderground v.1.15,2013-05-10 16:38:00,
2013-05-10 11:43:00,57.2,52.4,29.46,NW,325,2.0,10.0,84,0.00,,,0.01,Wunderground v.1.15,2013-05-10 16:43:00,
2013-05-10 11:48:00,57.2,52.4,29.46,NW,325,4.0,10.0,84,0.00,,,0.01,Wunderground v.1.15,2013-05-10 16:48:00,
2013-05-10 11:53:00,57.0,52.2,29.46,NW,325,0.0,9.0,84,0.00,,,0.01,Wunderground v.1.15,2013-05-10 16:53:00,
2013-05-10 11:58:00,56.9,51.8,29.46,NW,321,0.0,11.0,83,0.00,,,0.01,Wunderground v.1.15,2013-05-10 16:58:00,
2013-05-10 12:03:00,56.8,52.0,29.46,NW,320,4.0,9.0,84,0.00,,,0.01,Wunderground v.1.15,2013-05-10 17:03:00,
2013-05-10 12:08:00,56.9,52.1,29.46,NW,320,2.0,9.0,84,0.00,,,0.01,Wunderground v.1.15,2013-05-10 17:08:00,
2013-05-10 12:13:00,57.1,52.0,29.46,NW,320,4.0,6.0,83,0.00,,,0.01,Wunderground v.1.15,2013-05-10 17:13:00,
2013-05-10 12:18:00,57.3,52.2,29.46,NW,320,0.0,8.0,83,0.00,,,0.01,Wunderground v.1.15,2013-05-10 17:18:00,
2013-05-10 12:23:00,57.4,52.3,29.46,NW,318,8.0,11.0,83,0.00,,,0.01,Wunderground v.1.15,2013-05-10 17:23:00,
2013-05-10 12:28:00,57.4,52.3,29.46,NW,313,0.0,11.0,83,0.00,,,0.01,Wunderground v.1.15,2013-05-10 17:28:00,
2013-05-10 12:33:00,57.5,52.0,29.46,NW,314,0.0,11.0,82,0.00,,,0.01,Wunderground v.1.15,2013-05-10 17:33:00,
2013-05-10 12:38:00,57.6,52.1,29.46,NW,313,6.0,12.0,82,0.00,,,0.01,Wunderground v.1.15,2013-05-10 17:38:00,
2013-05-10 12:43:00,57.6,52.5,29.46,NW,311,8.0,9.0,83,0.00,,,0.01,Wunderground v.1.15,2013-05-10 17:43:00,
2013-05-10 12:48:00,57.8,-99.9,29.46,NW,311,4.0,12.0,255,0.00,,,0.01,Wunderground v.1.15,2013-05-10 17:48:00,
2013-05-10 12:53:00,-999.9,-99.9,29.46,NW,311,0.0,8.0,255,0.00,,,0.01,Wunderground v.1.15,2013-05-10 17:53:00,
2013-05-10 12:58:00,57.6,52.1,29.46,NW,311,0.0,8.0,82,0.00,,,0.01,Wunderground v.1.15,2013-05-10 17:58:00,
2013-05-10 13:03:00,57.5,52.0,29.46,NW,311,0.0,8.0,82,0.00,,,0.01,Wunderground v.1.15,2013-05-10 18:03:00,
2013-05-10 13:08:00,-999.9,-99.9,29.46,NW,312,0.0,12.0,81,0.00,,,0.01,Wunderground v.1.15,2013-05-10 18:08:00,
2013-05-10 13:13:00,57.3,51.5,29.46,NW,314,0.0,14.0,81,0.00,,,0.01,Wunderground v.1.15,2013-05-10 18:13:00,
2013-05-10 13:18:00,57.5,51.4,29.46,NW,316,0.0,14.0,80,0.00,,,0.01,Wunderground v.1.15,2013-05-10 18:18:00,
2013-05-10 13:23:00,-999.9,-99.9,29.46,NW,319,7.0,11.0,255,0.00,,,0.01,Wunderground v.1.15,2013-05-10 18:23:00,
2013-05-10 13:28:00,-999.9,-99.9,29.46,NW,321,6.0,13.0,81,0.00,,,0.01,Wunderground v.1.15,2013-05-10 18:28:00,
2013-05-10 13:33:00,57.4,51.3,29.46,NW,321,2.0,6.0,80,0.00,,,0.01,Wunderground v.1.15,2013-05-10 18:33:00,
2013-05-10 13:38:00,-999.9,-99.9,29.46,NW,321,6.0,10.0,80,0.00,,,0.01,Wunderground v.1.15,2013-05-10 18:38:00,
2013-05-10 13:43:00,57.9,52.1,29.46,NW,321,0.0,2.0,81,0.00,,,0.01,Wunderground v.1.15,2013-05-10 18:43:00,
2013-05-10 13:48:00,58.3,52.2,29.46,NW,321,0.0,7.0,80,0.00,,,0.01,Wunderground v.1.15,2013-05-10 18:48:00,
2013-05-10 13:54:00,58.5,52.0,29.46,NW,321,0.0,10.0,79,0.00,,,0.01,Wunderground v.1.15,2013-05-10 18:54:00,
2013-05-10 13:59:00,58.6,52.1,29.46,NW,321,2.0,10.0,79,0.00,,,0.01,Wunderground v.1.15,2013-05-10 18:59:00,
2013-05-10 14:04:00,-999.9,-99.9,29.46,NW,321,2.0,8.0,77,0.00,,,0.01,Wunderground v.1.15,2013-05-10 19:04:00,
2013-05-10 14:09:00,58.5,52.0,29.46,NW,321,5.0,9.0,79,0.00,,,0.01,Wunderground v.1.15,2013-05-10 19:09:00,
2013-05-10 14:14:00,58.4,51.9,29.46,NNW,337,9.0,13.0,79,0.00,,,0.01,Wunderground v.1.15,2013-05-10 19:14:00,
2013-05-10 14:19:00,57.8,51.7,29.46,NNW,338,0.0,13.0,80,0.00,,,0.01,Wunderground v.1.15,2013-05-10 19:19:00,
2013-05-10 14:24:00,57.4,51.6,29.46,NNW,338,8.0,10.0,81,0.00,,,0.01,Wunderground v.1.15,2013-05-10 19:24:00,
2013-05-10 14:29:00,57.2,-99.9,29.47,NNW,342,0.0,14.0,255,0.00,,,0.01,Wunderground v.1.15,2013-05-10 19:29:00,
2013-05-10 14:34:00,57.0,51.6,29.47,NNW,342,6.0,9.0,82,0.00,,,0.01,Wunderground v.1.15,2013-05-10 19:34:00,
2013-05-10 14:39:00,-999.9,-99.9,29.48,NNW,342,10.0,10.0,82,0.00,,,0.01,Wunderground v.1.15,2013-05-10 19:39:00,
2013-05-10 14:44:00,56.9,51.1,29.48,NNW,342,4.0,8.0,81,0.00,,,0.01,Wunderground v.1.15,2013-05-10 19:44:00,
2013-05-10 14:49:00,57.2,51.8,29.47,NNW,343,8.0,10.0,82,0.00,,,0.01,Wunderground v.1.15,2013-05-10 19:49:00,
2013-05-10 14:54:00,56.9,50.8,29.47,NNW,342,2.0,9.0,80,0.00,,,0.01,Wunderground v.1.15,2013-05-10 19:54:00,
2013-05-10 14:59:00,57.4,51.9,29.47,NNW,342,9.0,10.0,82,0.00,,,0.01,Wunderground v.1.15,2013-05-10 19:59:00,
2013-05-10 15:04:00,57.1,-99.9,29.47,NNW,342,4.0,9.0,255,0.00,,,0.01,Wunderground v.1.15,2013-05-10 20:04:00,
2013-05-10 15:09:00,56.8,51.0,29.47,NNW,342,5.0,9.0,81,0.00,,,0.01,Wunderground v.1.15,2013-05-10 20:09:00,
2013-05-10 15:14:00,56.8,-99.9,29.47,NNW,342,0.0,10.0,255,0.00,,,0.01,Wunderground v.1.15,2013-05-10 20:14:00,
2013-05-10 15:19:00,56.8,51.0,29.47,NNW,336,2.0,12.0,81,0.00,,,0.01,Wunderground v.1.15,2013-05-10 20:19:00,
2013-05-10 15:24:00,56.7,50.9,29.47,NNW,336,0.0,10.0,81,0.00,,,0.01,Wunderground v.1.15,2013-05-10 20:24:00,
2013-05-10 15:29:00,56.7,50.9,29.47,NNW,336,7.0,10.0,81,0.00,,,0.01,Wunderground v.1.15,2013-05-10 20:29:00,
2013-05-10 15:34:00,56.7,50.9,29.47,NNW,336,0.0,4.0,81,0.00,,,0.01,Wunderground v.1.15,2013-05-10 20:34:00,
2013-05-10 15:39:00,56.7,50.9,29.47,NNW,336,0.0,7.0,81,0.00,,,0.01,Wunderground v.1.15,2013-05-10 20:39:00,
2013-05-10 15:44:00,56.8,51.0,29.47,NNW,333,0.0,9.0,81,0.00,,,0.01,Wunderground v.1.15,2013-05-10 20:44:00,
2013-05-10 15:49:00,56.8,51.4,29.48,NNW,333,0.0,9.0,82,0.00,,,0.01,Wunderground v.1.15,2013-05-10 20:49:00,
2013-05-10 15:54:00,56.8,51.0,29.47,NNW,333,0.0,6.0,81,0.00,,,0.01,Wunderground v.1.15,2013-05-10 20:54:00,
2013-05-10 15:59:00,56.8,51.4,29.47,NNW,333,0.0,6.0,82,0.00,,,0.01,Wunderground v.1.15,2013-05-10 20:59:00,
2013-05-10 16:04:00,56.8,51.0,29.47,NNW,329,5.0,11.0,81,0.00,,,0.01,Wunderground v.1.15,2013-05-10 21:04:00,
2013-05-10 16:09:00,56.8,51.0,29.47,NNW,329,7.0,11.0,81,0.00,,,0.01,Wunderground v.1.15,2013-05-10 21:09:00,
2013-05-10 16:14:00,56.8,51.0,29.47,NNW,327,0.0,11.0,81,0.00,,,0.01,Wunderground v.1.15,2013-05-10 21:14:00,
2013-05-10 16:19:00,56.8,50.7,29.47,NNW,327,4.0,11.0,80,0.00,,,0.01,Wunderground v.1.15,2013-05-10 21:19:00,
2013-05-10 16:24:00,56.8,50.7,29.48,NNW,327,11.0,11.0,80,0.00,,,0.01,Wunderground v.1.15,2013-05-10 21:24:00,
2013-05-10 16:29:00,56.7,50.9,29.48,NNW,327,9.0,11.0,81,0.00,,,0.01,Wunderground v.1.15,2013-05-10 21:29:00,
2013-05-10 16:34:00,56.7,50.6,29.48,NNW,327,6.0,9.0,80,0.00,,,0.01,Wunderground v.1.15,2013-05-10 21:34:00,
2013-05-10 16:40:00,56.5,50.7,29.48,NNW,327,4.0,4.0,81,0.00,,,0.01,Wunderground v.1.15,2013-05-10 21:40:00,
2013-05-10 16:45:00,56.7,50.9,29.48,NNW,327,2.0,7.0,81,0.00,,,0.01,Wunderground v.1.15,2013-05-10 21:45:00,
2013-05-10 16:50:00,56.4,50.6,29.48,NNW,327,7.0,7.0,81,0.00,,,0.01,Wunderground v.1.15,2013-05-10 21:50:00,
2013-05-10 16:55:00,56.5,50.4,29.48,NNW,327,0.0,9.0,80,0.00,,,0.01,Wunderground v.1.15,2013-05-10 21:55:00,
2013-05-10 16:58:00,56.3,51.2,29.48,NNW,327,0.0,9.0,83,0.00,,,0.01,Wunderground v.1.15,2013-05-10 21:58:00,
2013-05-10 16:59:00,-999.9,-99.9,29.48,NNW,328,0.0,9.0,82,0.00,,,0.01,Wunderground v.1.15,2013-05-10 21:59:00,
2013-05-10 17:04:00,56.3,51.2,29.48,NNW,327,6.0,6.0,83,0.00,,,0.01,Wunderground v.1.15,2013-05-10 22:04:00,
2013-05-10 17:09:00,56.2,51.1,29.48,NNW,327,4.0,8.0,83,0.00,,,0.01,Wunderground v.1.15,2013-05-10 22:09:00,
2013-05-10 17:14:00,56.1,51.0,29.48,NNW,327,0.0,8.0,83,0.00,,,0.01,Wunderground v.1.15,2013-05-10 22:14:00,
2013-05-10 17:19:00,56.2,51.4,29.48,NNW,327,0.0,8.0,84,0.00,,,0.01,Wunderground v.1.15,2013-05-10 22:19:00,
2013-05-10 17:24:00,56.0,51.2,29.48,NNW,327,0.0,7.0,84,0.00,,,0.01,Wunderground v.1.15,2013-05-10 22:24:00,
2013-05-10 17:29:00,55.9,50.8,29.48,NNW,327,4.0,8.0,83,0.00,,,0.01,Wunderground v.1.15,2013-05-10 22:29:00,
2013-05-10 17:34:00,-999.9,-99.9,29.48,NNW,327,0.0,4.0,255,0.00,,,0.01,Wunderground v.1.15,2013-05-10 22:34:00,
2013-05-10 17:39:00,55.8,50.7,29.48,NNW,327,4.0,5.0,83,0.00,,,0.01,Wunderground v.1.15,2013-05-10 22:39:00,
2013-05-10 17:44:00,55.8,50.7,29.48,NNW,327,1.0,8.0,83,0.00,,,0.01,Wunderground v.1.15,2013-05-10 22:44:00,
2013-05-10 17:49:00,55.8,50.4,29.48,NNW,327,1.0,8.0,82,0.00,,,0.01,Wunderground v.1.15,2013-05-10 22:49:00,
2013-05-10 17:54:00,55.8,50.7,29.49,NNW,327,2.0,7.0,83,0.00,,,0.01,Wunderground v.1.15,2013-05-10 22:54:00,
2013-05-10 17:59:00,55.7,50.6,29.49,NNW,327,0.0,7.0,83,0.00,,,0.01,Wunderground v.1.15,2013-05-10 22:59:00,
2013-05-10 18:04:00,55.6,50.8,29.49,NNW,327,6.0,8.0,84,0.00,,,0.01,Wunderground v.1.15,2013-05-10 23:04:00,
2013-05-10 18:09:00,55.5,50.4,29.49,NNW,327,0.0,10.0,83,0.00,,,0.01,Wunderground v.1.15,2013-05-10 23:09:00,
2013-05-10 18:14:00,55.4,50.3,29.49,NNW,327,0.0,8.0,83,0.00,,,0.01,Wunderground v.1.15,2013-05-10 23:14:00,
2013-05-10 18:19:00,55.3,50.5,29.49,NNW,329,0.0,11.0,84,0.00,,,0.01,Wunderground v.1.15,2013-05-10 23:19:00,
2013-05-10 18:24:00,55.3,50.5,29.49,NNW,329,2.0,10.0,84,0.00,,,0.01,Wunderground v.1.15,2013-05-10 23:24:00,
2013-05-10 18:29:00,55.1,50.4,29.50,NNW,329,6.0,10.0,84,0.00,,,0.01,Wunderground v.1.15,2013-05-10 23:29:00,
2013-05-10 18:34:00,55.0,50.3,29.50,NNW,329,5.0,9.0,84,0.00,,,0.01,Wunderground v.1.15,2013-05-10 23:34:00,
2013-05-10 18:39:00,54.9,50.2,29.50,NNW,329,0.0,9.0,84,0.00,,,0.01,Wunderground v.1.15,2013-05-10 23:39:00,
2013-05-10 18:44:00,54.8,50.1,29.50,NW,325,2.0,8.0,84,0.00,,,0.01,Wunderground v.1.15,2013-05-10 23:44:00,
2013-05-10 18:50:00,55.1,50.7,29.50,NW,325,0.0,1.0,85,0.00,,,0.01,Wunderground v.1.15,2013-05-10 23:50:00,
2013-05-10 18:55:00,-999.9,-99.9,29.49,NW,325,0.0,5.0,84,0.00,,,0.01,Wunderground v.1.15,2013-05-10 23:55:00,
2013-05-10 19:00:00,54.8,-99.9,29.50,NW,325,0.0,1.0,255,0.00,,,0.01,Wunderground v.1.15,2013-05-11 00:00:00,
2013-05-10 19:05:00,54.8,50.4,29.50,NW,325,0.0,1.0,85,0.00,,,0.01,Wunderground v.1.15,2013-05-11 00:05:00,
2013-05-10 19:10:00,54.8,50.4,29.50,NW,325,4.0,5.0,85,0.00,,,0.01,Wunderground v.1.15,2013-05-11 00:10:00,
2013-05-10 19:15:00,54.6,50.2,29.50,NW,325,5.0,6.0,85,0.00,,,0.01,Wunderground v.1.15,2013-05-11 00:15:00,
2013-05-10 19:20:00,54.4,50.3,29.51,NW,325,6.0,7.0,86,0.00,,,0.01,Wunderground v.1.15,2013-05-11 00:20:00,
2013-05-10 19:25:00,54.3,50.2,29.51,NW,325,0.0,7.0,86,0.00,,,0.01,Wunderground v.1.15,2013-05-11 00:25:00,
2013-05-10 19:30:00,54.2,50.1,29.50,NW,325,0.0,4.0,86,0.00,,,0.01,Wunderground v.1.15,2013-05-11 00:30:00,
2013-05-10 19:35:00,54.2,50.1,29.50,NW,325,0.0,4.0,86,0.00,,,0.01,Wunderground v.1.15,2013-05-11 00:35:00,
2013-05-10 19:40:00,54.3,49.9,29.50,NW,325,0.0,0.0,85,0.00,,,0.01,Wunderground v.1.15,2013-05-11 00:40:00,
2013-05-10 19:45:00,54.2,50.1,29.50,NW,325,0.0,0.0,86,0.00,,,0.01,Wunderground v.1.15,2013-05-11 00:45:00,
2013-05-10 19:50:00,54.2,50.1,29.50,NW,325,0.0,0.0,86,0.00,,,0.01,Wunderground v.1.15,2013-05-11 00:50:00,
2013-05-10 19:55:00,54.2,50.4,29.51,NW,325,0.0,2.0,87,0.00,,,0.01,Wunderground v.1.15,2013-05-11 00:55:00,
2013-05-10 20:01:00,54.3,50.2,29.50,NW,325,0.0,0.0,86,0.00,,,0.01,Wunderground v.1.15,2013-05-11 01:01:00,
2013-05-10 20:06:00,54.2,50.4,29.50,NW,325,0.0,0.0,87,0.00,,,0.01,Wunderground v.1.15,2013-05-11 01:06:00,
2013-05-10 20:11:00,-999.9,-99.9,29.50,NW,325,0.0,0.0,87,0.00,,,0.01,Wunderground v.1.15,2013-05-11 01:11:00,
2013-05-10 20:16:00,54.2,49.8,29.50,NW,325,2.0,2.0,85,0.00,,,0.01,Wunderground v.1.15,2013-05-11 01:16:00,
2013-05-10 20:21:00,54.1,50.3,29.50,NW,325,0.0,4.0,87,0.00,,,0.01,Wunderground v.1.15,2013-05-11 01:21:00,
2013-05-10 20:26:00,54.2,50.4,29.50,NW,325,0.0,6.0,87,0.00,,,0.01,Wunderground v.1.15,2013-05-11 01:26:00,
2013-05-10 20:31:00,54.4,-99.9,29.50,NW,325,0.0,4.0,255,0.00,,,0.01,Wunderground v.1.15,2013-05-11 01:31:00,
2013-05-10 20:36:00,54.0,50.2,29.50,NW,325,0.0,5.0,87,0.00,,,0.01,Wunderground v.1.15,2013-05-11 01:36:00,
2013-05-10 20:41:00,54.1,50.0,29.50,NW,325,0.0,1.0,86,0.00,,,0.01,Wunderground v.1.15,2013-05-11 01:41:00,
2013-05-10 20:46:00,54.0,50.2,29.50,NW,325,0.0,1.0,87,0.00,,,0.01,Wunderground v.1.15,2013-05-11 01:46:00,
2013-05-10 20:51:00,53.9,50.1,29.50,NW,325,0.0,0.0,87,0.00,,,0.01,Wunderground v.1.15,2013-05-11 01:51:00,
2013-05-10 20:56:00,54.0,50.2,29.50,NW,325,0.0,0.0,87,0.00,,,0.01,Wunderground v.1.15,2013-05-11 01:56:00,
2013-05-10 21:01:00,54.0,50.2,29.50,NW,325,0.0,0.0,87,0.00,,,0.01,Wunderground v.1.15,2013-05-11 02:01:00,
2013-05-10 21:06:00,53.9,50.1,29.50,NW,325,0.0,0.0,87,0.00,,,0.01,Wunderground v.1.15,2013-05-11 02:06:00,
2013-05-10 21:11:00,53.9,50.1,29.50,NW,325,0.0,2.0,87,0.00,,,0.01,Wunderground v.1.15,2013-05-11 02:11:00,
2013-05-10 21:16:00,54.0,-99.9,29.50,NW,325,0.0,2.0,255,0.00,,,0.01,Wunderground v.1.15,2013-05-11 02:16:00,
2013-05-10 21:21:00,53.9,50.1,29.50,NW,325,0.0,0.0,87,0.00,,,0.01,Wunderground v.1.15,2013-05-11 02:21:00,
2013-05-10 21:26:00,54.1,50.6,29.50,NW,325,0.0,0.0,88,0.00,,,0.01,Wunderground v.1.15,2013-05-11 02:26:00,
2013-05-10 21:31:00,53.9,50.1,29.50,NW,325,0.0,0.0,87,0.00,,,0.01,Wunderground v.1.15,2013-05-11 02:31:00,
2013-05-10 21:36:00,53.9,50.4,29.50,NW,325,1.0,2.0,88,0.00,,,0.01,Wunderground v.1.15,2013-05-11 02:36:00,
2013-05-10 21:41:00,54.1,50.0,29.50,NW,325,0.0,0.0,86,0.00,,,0.01,Wunderground v.1.15,2013-05-11 02:41:00,
2013-05-10 21:46:00,53.8,50.3,29.50,NW,325,0.0,0.0,88,0.00,,,0.01,Wunderground v.1.15,2013-05-11 02:46:00,
2013-05-10 21:51:00,53.9,50.4,29.51,NW,325,0.0,0.0,88,0.00,,,0.01,Wunderground v.1.15,2013-05-11 02:51:00,
2013-05-10 21:56:00,53.7,50.2,29.51,NW,325,0.0,0.0,88,0.00,,,0.01,Wunderground v.1.15,2013-05-11 02:56:00,
2013-05-10 22:01:00,53.7,50.2,29.51,NW,325,0.0,0.0,88,0.00,,,0.01,Wunderground v.1.15,2013-05-11 03:01:00,
2013-05-10 22:06:00,53.9,50.7,29.51,NW,325,0.0,0.0,89,0.00,,,0.01,Wunderground v.1.15,2013-05-11 03:06:00,
2013-05-10 22:11:00,53.6,50.4,29.51,NW,325,0.0,1.0,89,0.00,,,0.01,Wunderground v.1.15,2013-05-11 03:11:00,
2013-05-10 22:16:00,53.7,50.5,29.51,NW,325,0.0,4.0,89,0.00,,,0.01,Wunderground v.1.15,2013-05-11 03:16:00,
2013-05-10 22:21:00,53.6,50.4,29.51,NW,325,0.0,0.0,89,0.00,,,0.01,Wunderground v.1.15,2013-05-11 03:21:00,
2013-05-10 22:26:00,53.6,50.4,29.51,NW,325,0.0,2.0,89,0.00,,,0.01,Wunderground v.1.15,2013-05-11 03:26:00,
2013-05-10 22:31:00,-90.0,-99.9,29.51,NW,325,0.0,0.0,255,0.00,,,0.01,Wunderground v.1.15,2013-05-11 03:31:00,
2013-05-10 22:36:00,53.5,50.0,29.51,NW,325,0.0,0.0,88,0.00,,,0.01,Wunderground v.1.15,2013-05-11 03:36:00,
2013-05-10 22:41:00,53.5,50.3,29.51,NW,325,0.0,0.0,89,0.00,,,0.01,Wunderground v.1.15,2013-05-11 03:41:00,
2013-05-10 22:46:00,53.4,-99.9,29.51,NW,325,0.0,0.0,255,0.00,,,0.01,Wunderground v.1.15,2013-05-11 03:46:00,
2013-05-10 22:52:00,53.7,50.2,29.51,NW,325,0.0,0.0,88,0.00,,,0.01,Wunderground v.1.15,2013-05-11 03:52:00,
2013-05-10 22:57:00,53.0,49.8,29.51,NW,325,0.0,0.0,89,0.00,,,0.01,Wunderground v.1.15,2013-05-11 03:57:00,
2013-05-10 23:01:00,52.8,49.6,29.51,NW,325,0.0,0.0,89,0.00,,,0.01,Wunderground v.1.15,2013-05-11 04:01:00,
2013-05-10 23:06:00,52.7,49.5,29.51,NW,325,0.0,0.0,89,0.00,,,0.01,Wunderground v.1.15,2013-05-11 04:06:00,
2013-05-10 23:11:00,52.4,49.3,29.52,NW,325,0.0,0.0,89,0.00,,,0.01,Wunderground v.1.15,2013-05-11 04:11:00,
2013-05-10 23:16:00,52.2,49.4,29.52,NW,325,0.0,0.0,90,0.00,,,0.01,Wunderground v.1.15,2013-05-11 04:16:00,
2013-05-10 23:21:00,52.0,49.2,29.52,NW,325,0.0,0.0,90,0.00,,,0.01,Wunderground v.1.15,2013-05-11 04:21:00,
2013-05-10 23:26:00,51.7,48.9,29.52,NW,325,0.0,0.0,90,0.00,,,0.01,Wunderground v.1.15,2013-05-11 04:26:00,
2013-05-10 23:31:00,51.6,48.5,29.52,NW,325,0.0,0.0,89,0.00,,,0.01,Wunderground v.1.15,2013-05-11 04:31:00,
2013-05-10 23:36:00,51.3,48.5,29.52,NW,325,0.0,0.0,90,0.00,,,0.01,Wunderground v.1.15,2013-05-11 04:36:00,
2013-05-10 23:41:00,51.0,48.2,29.52,NW,325,0.0,0.0,90,0.00,,,0.01,Wunderground v.1.15,2013-05-11 04:41:00,
2013-05-10 23:46:00,50.8,48.0,29.52,NW,325,0.0,0.0,90,0.00,,,0.01,Wunderground v.1.15,2013-05-11 04:46:00,
2013-05-10 23:51:00,50.6,47.8,29.52,NW,325,0.0,0.0,90,0.00,,,0.01,Wunderground v.1.15,2013-05-11 04:51:00,
2013-05-10 23:56:00,50.4,47.6,29.52,NW,325,0.0,0.0,90,0.00,,,0.01,Wunderground v.1.15,2013-05-11 04:56:00,